Home   Weather   Yazd   Past weeks
Flag for Iran

Past Weather in Yazd, Iran — Yesterday and Last 2 Weeks

Now
70 °F

Passing clouds.


Feels Like: 70 °F
Forecast: 80 / 57 °F
Wind: 7 mph from Northwest

Location: Yazd Airport

Current Time: Oct 23, 2019 at 7:05:04 pm

Latest Report: Oct 23, 2019 at 6:00 pm


Visibility: N/A

Pressure: 30.18 "Hg (26.20 "Hg at 1218m altitude)

Humidity: 35%

Dew Point: 41 °F

Location of YazdLocation

Past Weather in Yazd — Graph

°F

Yazd Temperature Yesterday

Maximum temperature yesterday: 79 °F (at 1:00 pm)
Minimum temperature yesterday: 55 °F (at 6:00 am)
Average temperature yesterday: 69 °F

High & Low Weather Summary for the Past Weeks

 TemperatureHumidityPressure
High90 °F (Oct 9, 2:30 pm)55% (Oct 23, 7:00 am)30.42 "Hg (Oct 23, 7:00 am)
Low55 °F (Oct 22, 6:00 am)10% (Oct 10, 3:00 pm)30.07 "Hg (Oct 20, 4:00 pm)
Average73 °F23%30.21 "Hg
* Reported Oct 8 5:30 pm — Oct 23 6:00 pm, Yazd. Weather by CustomWeather, © 2019

Note: Actual official high and low records may vary slightly from our data, if they occured in-between our weather recording intervals... More about our weather records

Advertising

Yazd Weather History for the Previous 24 Hours

Scroll right to see more
 ConditionsComfort  
Time TempWeatherWind HumidityBarometerVisibility
6:00 pm
Wed, Oct 23
70 °FPassing clouds.7 mph35%30.18 "HgN/A
5:30 pm70 °FScattered clouds.7 mph35%30.18 "HgN/A
5:00 pm72 °FScattered clouds.9 mph33%30.18 "HgN/A
4:30 pm72 °FPassing clouds.12 mph33%30.18 "HgN/A
3:30 pm73 °FScattered clouds.9 mph33%30.18 "HgN/A
2:30 pm73 °FBroken clouds.9 mph33%30.15 "Hg5 mi
1:30 pm75 °FScattered clouds.7 mph31%30.15 "HgN/A
1:00 pm73 °FPassing clouds.2 mph33%30.15 "HgN/A
12:30 pm73 °FPassing clouds.2 mph33%30.15 "HgN/A
12:00 pm72 °FPassing clouds.2 mph36%30.18 "HgN/A
11:30 am70 °FPassing clouds.2 mph38%30.18 "HgN/A
11:00 am68 °FPassing clouds.2 mph40%30.21 "HgN/A
10:30 am66 °FPassing clouds.5 mph43%30.24 "HgN/A
10:00 am64 °FPassing clouds.5 mph46%30.24 "HgN/A
9:30 am63 °FPassing clouds.7 mph49%30.24 "HgN/A
9:00 am61 °FPassing clouds.7 mph48%30.27 "HgN/A
8:20 am59 °FPassing clouds.7 mph51%30.24 "HgN/A
8:00 am57 °FPassing clouds.7 mph55%30.24 "HgN/A
7:30 am57 °FPassing clouds.7 mph51%30.24 "HgN/A
7:00 am55 °FPassing clouds.7 mph55%30.24 "HgN/A
6:30 am55 °FPassing clouds.5 mph51%30.21 "HgN/A
6:00 am55 °FPassing clouds.7 mph51%30.21 "HgN/A
5:30 am57 °FClear.5 mph44%30.18 "Hg10 mi
4:30 am57 °FClear.No wind41%30.15 "Hg10 mi
3:30 am59 °FClear.2 mph39%30.15 "Hg10 mi
2:20 am57 °FClear.5 mph39%30.15 "Hg10 mi
1:30 am61 °FClear.No wind36%30.15 "Hg10 mi
12:30 am63 °FClear.5 mph34%30.15 "Hg10 mi
11:30 pm
Tue, Oct 22
64 °FPassing clouds.7 mph32%30.15 "HgN/A
11:00 pm64 °FPassing clouds.2 mph32%30.18 "HgN/A
10:30 pm64 °FPassing clouds.2 mph32%30.18 "HgN/A
10:00 pm66 °FPassing clouds.2 mph30%30.18 "HgN/A
9:30 pm68 °FPassing clouds.2 mph28%30.18 "HgN/A
9:00 pm68 °FPassing clouds.5 mph28%30.18 "HgN/A
8:30 pm70 °FPassing clouds.9 mph25%30.21 "HgN/A
8:00 pm72 °FPassing clouds.7 mph23%30.21 "HgN/A
7:30 pm72 °FPassing clouds.7 mph23%30.18 "HgN/A
7:00 pm72 °FPassing clouds.5 mph23%30.18 "HgN/A
Weather by CustomWeather, © 2019

See weather overview